Location: Madrid
(40.4000°N, 3.6830°W)
Time: 16:21:57
(UTC+01:00)

ISS - Pass Details

Date: 14 February 2018
Orbit: 403 x 406 km, 51.6° (Epoch: 26 February)

Event Time Altitude Azimuth Distance (km) Brightness Sun altitude
Rises 19:59:43 0° 289° (WNW) 2,318 1.3 -14.1°
Reaches altitude 10° 20:02:33 10° 262° (W) 1,454 0.4 -14.6°
Maximum altitude 20:04:16 14° 230° (SW) 1,250 -0.6 -15.0°
Drops below altitude 10° 20:06:00 10° 198° (SSW) 1,449 -0.8 -15.3°
Sets 20:08:49 0° 171° (S) 2,304 -0.1 -15.8°
